Weather in Khasyn

Russia / Magadan District     60°05′14″N   150°53′33″E
temp.,
°C
wind,
m/s
gust,
m/s
humid.,
%
clouds,
%
prec.,
mm/h
press.,
hPa
HPBL,
m
17 august, wed
wed1723:00+9n2391100 6.3 99678
02:00+9nne1188100 0.1 99514
05:00+9ne1187100 0.3 99617
08:00+9nne1189100 0.4 99695
11:00+10ne1186100 0.6 996158
14:00+10ne1284100 0.2 996202
17:00+10ne1188100 0.6 997126
20:00+10ne1189100 0.3 99811
18 august, thu
thu1823:00+9ne1188100 0.4 99911
02:00+9ne1190100 0.2 99911
05:00+9wnw118895 0.3 100010
08:00+10se118092 0.0 1001185
11:00+12s227788 0.1 1002797
14:00+10se338398 0.2 1003397
17:00+10sse2379100 0.2 1004337
20:00+10se2282100 0.0 100683
19 august, fri
fri1923:00+9se2289100 0.0 100651
02:00+8se2289100 0.1 100739
05:00+7ese2289100 0.1 100715
08:00+9ese2381100 0.0 1007313
11:00+9ese238399 0.3 1007346
14:00+10e2480100 0.1 1006422
17:00+9se2292100 4.0 100498
20:00+8e2296100 9.2 100696
20 august, sat
sat2023:00+9se2295100 9.8 1006154
02:00+8e2294100 1.1 100681
05:00+7ese2293100 1.9 100769
08:00+8ese2289100 0.0 1009127
11:00+9ese2288100 0.0 1010293
14:00+13sse2276100 0.1 1009778
17:00+14sse1173100 0.1 1010657
20:00+11ese1189100 0.0 101010
21 august, sun
sun2123:00+9e119199 0.0 101011
02:00+11ene228794 0.0 100913
05:00+9e1188100 0.0 100910
08:00+12ene2277100 0.0 1008186
11:00+12e2279100 0.0 1006151
14:00+14ese1274100 0.0 1005165
17:00+12ese2290100 0.5 100454
20:00+11ene3493100 1.7 1003103